NOAA 16 DEB, 41270

Orbit data source: Space-Track

NOAA 16 DEB, 41270 is space debris in SSO originally from a launch on Thu, 21 Sep 2000 UTC launched from the Air Force Western Test Range (AFWTR). Debris objects in space refer to the collection of defunct objects orbiting the Earth. Examples of debris include non-operational satellites, rocket bodies, and fragments generated from explosions, collisions, or faulty payload assembly.

Loading next visibility...
Identifier
41270, 2000-055FW
Orbit
SSO
Country
Flag of USUS
Related business
Manufacturer
Unknown
Mission
Spacecraft
Bus & Motor
Unknown
Mass
Unknown
Launch date (UTC)
2000-09-21 (26 years ago)
Launch vehicle
Unknown
Launch site
Air Force Western Test Range (AFWTR)
Object type
Payload
Rocket body
Debris
Shape & HBR
Unknown shape, 0.1 m
Radar Cross Section
Small (<0.1 m²)

Expand to show TLE details & history
Last TLE update: 10 hours ago

TLE from 10 hours ago
0 NOAA 16 DEB
1 41270U 00055FW  26124.12957804  .00007079  00000-0  23890-2 0  9992
2 41270  98.9772 258.5337 0017953  10.6653 349.4909 14.37178302534542
Epoch: 2026-05-04T03:06Z
TLE epoch observation values (Epoch: 2026-05-04T03:06:35.542Z)
Latitude
-0.00007°
Longitude
-10.13758°
Altitude
758.15 km
Speed
7.482 km/s
True Right ascension
17h 14m 08s
True Declination
0° 00' 00"
Sunlit
Object was in full shadow at epoch
Visualization orbit readout
Latitude
Unknown
Longitude
Unknown
Altitude
Unknown
Speed
Unknown
Apparent Right ascension
Unknown
Apparent Declination
Unknown
Sunlit
N/A
Visualization observer readout
Local Sidereal Time
20:30:22
Azimuth
Unknown
Elevation
Unknown
Doppler factor
Unknown
Orbital elements
Apogee altitude
777.809 km
Perigee altitude
752.161 km
Semi-major axis
7,143.122 km
Eccentricity
0.0018
Inclination
98.9772°
RAAN
258.5337°
Arg. of periapsis
10.6653°
True anomaly
349.45329°
Mean anomaly
349.4909°
Eccentric anomaly
349.47211°
Mean motion
3.5951 °/min
Orbital period
100.14 mins
BSTAR
0.002389
Loading maneuver chart data...
Computing Atmospheric mass density...
Loading historical data...
Loading historical data...
Loading historical data...
Loading historical data...
Loading historical data...
Loading historical data...
Loading historical data...

Documentation

Showing up to 5 results
|